This is the latest recevied weather packets stored in our database for station/object KE8WMS. If no packets are shown the sender has not sent any weather packets the latest 10 day(s).
| Time | Temp. | Humidity | Pressure | Rain* | Wind** | Luminosity | Snow |
|---|---|---|---|---|---|---|---|
| 1777574942 | 12.78° C | 57% | 1011.5 hPa | 0 mm | - | 756 W/m² | - |
| 1777574629 | 12.22° C | 56% | 1011.6 hPa | 0 mm | - | 755 W/m² | - |
| 1777574326 | 11.67° C | 61% | 1011.6 hPa | 0 mm | - | 750 W/m² | - |
| 1777574026 | 11.11° C | 64% | 1011.5 hPa | 0 mm | - | 794 W/m² | - |
| 1777573721 | 11.11° C | 62% | 1011.9 hPa | 0 mm | - | 829 W/m² | - |
| 1777573418 | 11.67° C | 61% | 1011.5 hPa | 0 mm | - | 584 W/m² | - |
| 1777573114 | 11.67° C | 63% | 1011.8 hPa | 0 mm | - | 778 W/m² | - |
| 1777572811 | 11.11° C | 66% | 1011.6 hPa | 0 mm | - | 847 W/m² | - |
| 1777572506 | 11.67° C | 65% | 1011.6 hPa | 0 mm | - | 210 W/m² | - |
| 1777572201 | 10.56° C | 66% | 1011.6 hPa | 0 mm | - | 907 W/m² | - |
| 1777571897 | 11.11° C | 64% | 1011.8 hPa | 0 mm | - | 482 W/m² | - |
| 1777571592 | 11.11° C | 67% | 1012 hPa | 0 mm | - | 608 W/m² | - |
| 1777571290 | 11.67° C | 68% | 1012 hPa | 0 mm | - | 400 W/m² | - |
| 1777570986 | 11.11° C | 64% | 1012.1 hPa | 0 mm | - | 309 W/m² | - |
| 1777570682 | 11.67° C | 65% | 1011.8 hPa | 0 mm | - | 882 W/m² | - |
| 1777570379 | 11.67° C | 69% | 1012 hPa | 0 mm | - | 943 W/m² | - |
| 1777570074 | 10.56° C | 72% | 1011.8 hPa | 0 mm | - | 898 W/m² | - |
| 1777569770 | 10° C | 74% | 1011.9 hPa | 0 mm | - | 374 W/m² | - |
| 1777569466 | 10° C | 72% | 1011.8 hPa | 0 mm | - | 374 W/m² | - |
| 1777569163 | 9.44° C | 77% | 1012 hPa | 0 mm | - | 437 W/m² | - |
| 1777568859 | 9.44° C | 77% | 1012.1 hPa | 0 mm | - | 308 W/m² | - |
| 1777568557 | 9.44° C | 77% | 1011.8 hPa | 0 mm | - | 244 W/m² | - |
| 1777568253 | 8.89° C | 78% | 1011.9 hPa | 0 mm | - | 222 W/m² | - |
| 1777567950 | 8.89° C | 76% | 1011.8 hPa | 0 mm | - | 205 W/m² | - |
| 1777567646 | 8.89° C | 76% | 1011.8 hPa | 0 mm | - | 262 W/m² | - |
* Rain latest hour (hover to see other rain measurements)
** Current wind speed in m/s (hover to see current wind gust speed)